アトラス彗星

C/2023 K1 ( ATLAS )

English version
Home page
Updated on December 1, 2023

---------------------------------------------------------------------

・ プロフィール

発見日 2023年5月27日
発見光度 18.6等
発見者 Asteroid Terrestrial-Impact Last Alert System (ATLAS) search program

・ 写真集

・ 軌道要素

Epoch 2023 Sept. 13.0 TT = JDT 2460200.5
T 2023 Sept. 7.74891 TT                                 Rudenko
q   2.0395226            (2000.0)            P               Q
z  +0.0013862      Peri.  337.47289     -0.47100622     -0.75125022
 +/-0.0000052      Node   223.70664     -0.67243004     -0.03347923
e   0.9971729      Incl.  137.99857     -0.57095620     +0.65916784
>From 183 observations 2023 May 27-Sept. 9, mean residual 0".6.

・ 光度変化

        m1 = -2.5 + 5 logΔ + 50 log r

---------------------------------------------------------------------

軌道要素はM.P.E.C. 2023-S260に掲載されたものです。
光度グラフはComet for Windowsで作成したものです。

---------------------------------------------------------------------

Copyright(C) Seiichi Yoshida (comet@aerith.net). All rights reserved.